Minot AFB, ND

11:43 PM CST on December 11, 2017 (GMT -0600)
Minot Air Force Base

Weather History for KMIB - April, 2014

Change the Weather History Date:

Saturday, April 19, 2014

  Actual Average Record
Temperature  
Mean Temperature 42 °F -  
Max Temperature 53 °F 55 °F 72 °F (2008)
Min Temperature 32 °F 30 °F 17 °F (2013)
Degree Days  
Heating Degree Days 22    
Moisture  
Dew Point 36 °F    
Average Humidity 83    
Maximum Humidity 100    
Minimum Humidity 49    
Precipitation  
Precipitation 0.00 in - - ()
Sea Level Pressure  
Sea Level Pressure 29.82 in    
Wind  
Wind Speed 11 mph (West)    
Max Wind Speed 28 mph    
Max Gust Speed 37 mph    
Visibility 9 miles    
Events      
Averages and records for this station are not official NWS values.
T = Trace of Precipitation, MM = Missing Value Source: NWS Daily Summary

Daily Weather History Graph

Daily Weather History Graph

Search for Another Location

Airport or City:

Trip Planner

Search our weather history database for the weather conditions in past years. The results will help you decide how hot, cold, wet, or windy it might be!

Date:

Astronomy

Apr. 19, 2014 Rise Set
Actual Time 6:47 AM CDT 8:42 PM CDT
Civil Twilight 6:14 AM CDT 9:16 PM CDT
Nautical Twilight 5:33 AM CDT 9:57 PM CDT
Astronomical Twilight 4:47 AM CDT 10:43 PM CDT
Moon 12:39 AM CDT (4/19) 9:56 AM CDT (4/19)
Length of Visible Light 15h 01m
Length of Day
13h 54m
Waning Gibbous, 78% of the Moon is Illuminated
Apr 19
Waning Gibbous
Apr 22
Last Quarter
Apr 29
New
May 6
First Quarter
May 14
Full

Hourly Weather History & Observations

Time (CDT) Temp. Windchill Dew Point Humidity Pressure Visibility Wind Dir Wind Speed Gust Speed Precip Events Conditions
12:58 AM 35.8 °F 30.9 °F 35.6 °F 99% 29.73 in 7.0 mi SE 5.8 mph - N/A   Clear
1:18 AM 35.6 °F 30.7 °F 35.6 °F 100% 29.68 in 7.0 mi SSE 5.8 mph - N/A   Clear
1:43 AM 33.8 °F 29.6 °F 33.8 °F 100% 29.69 in 7.0 mi SW 4.6 mph - N/A   Clear
1:53 AM 32.0 °F 25.6 °F 32.0 °F 100% 29.70 in 5.0 mi WSW 6.9 mph - N/A   Clear
1:58 AM 33.4 °F 26.6 °F 33.1 °F 99% 29.76 in 5.0 mi WSW 8.1 mph - N/A   Scattered Clouds
2:08 AM 33.8 °F 25.3 °F 33.8 °F 100% 29.72 in 6.0 mi WSW 11.5 mph - N/A   Mostly Cloudy
2:13 AM 35.6 °F 27.5 °F 35.6 °F 100% 29.72 in 7.0 mi WSW 11.5 mph - N/A   Mostly Cloudy
2:23 AM 35.6 °F 29.2 °F 35.6 °F 100% 29.72 in 6.0 mi WSW 8.1 mph - N/A   Overcast
2:33 AM 37.4 °F 33.8 °F 35.6 °F 93% 29.71 in 6.0 mi West 4.6 mph - N/A   Overcast
2:38 AM 37.4 °F - 35.6 °F 93% 29.70 in 6.0 mi West 2.3 mph - N/A   Overcast
2:53 AM 37.4 °F - 37.4 °F 100% 29.68 in 7.0 mi NW 1.2 mph - N/A   Overcast
2:58 AM 37.0 °F - 36.9 °F 99% 29.72 in 8.0 mi Calm Calm - N/A   Overcast
3:33 AM 35.6 °F 32.8 °F 35.6 °F 100% 29.67 in 6.0 mi South 3.5 mph - N/A   Partly Cloudy
3:43 AM 35.6 °F 31.7 °F 35.6 °F 100% 29.67 in 7.0 mi SW 4.6 mph - N/A   Partly Cloudy
3:58 AM 35.6 °F 30.7 °F 35.4 °F 99% 29.73 in 7.0 mi SW 5.8 mph - N/A   Partly Cloudy
4:53 AM 35.6 °F 29.9 °F 35.6 °F 100% 29.68 in 10.0 mi WSW 6.9 mph - N/A   Clear
4:58 AM 35.2 °F 27.6 °F 35.1 °F 99% 29.73 in 10.0 mi WSW 10.4 mph - N/A   Clear
5:58 AM 37.2 °F 28.7 °F 36.9 °F 99% 29.73 in 10.0 mi WSW 13.8 mph - N/A   Clear
6:58 AM 37.0 °F 28.5 °F 35.4 °F 94% 29.75 in 10.0 mi WSW 13.8 mph 23.0 mph N/A   Clear
7:58 AM 38.7 °F 29.1 °F 35.2 °F 87% 29.77 in 10.0 mi WSW 18.4 mph 21.9 mph N/A   Partly Cloudy
8:58 AM 42.1 °F 33.1 °F 36.1 °F 79% 29.78 in 10.0 mi WSW 20.7 mph 31.1 mph N/A   Overcast
9:58 AM 45.3 °F 36.5 °F 39.6 °F 80% 29.80 in 10.0 mi West 25.3 mph 32.2 mph N/A   Partly Cloudy
10:23 AM 46.4 °F 38.3 °F 41.0 °F 81% 29.76 in 10.0 mi West 23.0 mph 36.8 mph N/A   Mostly Cloudy
10:28 AM 46.4 °F 38.7 °F 41.0 °F 81% 29.77 in 10.0 mi West 20.7 mph 29.9 mph N/A   Mostly Cloudy
10:58 AM 46.6 °F - 40.3 °F 79% 29.83 in 10.0 mi West 27.6 mph 34.5 mph N/A   Overcast
11:58 AM 46.6 °F - 39.6 °F 77% 29.86 in 10.0 mi West 21.9 mph 29.9 mph N/A   Overcast
12:23 PM 46.4 °F 38.1 °F 39.2 °F 76% 29.82 in 10.0 mi West 24.2 mph 31.1 mph N/A   Overcast
12:58 PM 46.0 °F 37.8 °F 40.5 °F 81% 29.90 in 10.0 mi WNW 23.0 mph 29.9 mph N/A   Overcast
1:03 PM 46.4 °F 38.5 °F 39.2 °F 76% 29.85 in 10.0 mi WNW 21.9 mph 29.9 mph N/A   Overcast
1:08 PM 46.4 °F 38.7 °F 39.2 °F 76% 29.85 in 10.0 mi WNW 20.7 mph 29.9 mph N/A   Overcast
1:18 PM 46.4 °F 38.3 °F 39.2 °F 76% 29.86 in 10.0 mi WNW 23.0 mph 28.8 mph N/A   Overcast
1:38 PM 46.4 °F 38.7 °F 37.4 °F 71% 29.86 in 10.0 mi West 20.7 mph 25.3 mph N/A   Overcast
1:43 PM 46.4 °F 38.7 °F 37.4 °F 71% 29.87 in 10.0 mi West 20.7 mph 26.5 mph N/A   Overcast
1:48 PM 48.2 °F - 37.4 °F 66% 29.87 in 10.0 mi WNW 17.3 mph 27.6 mph N/A   Overcast
1:58 PM 47.3 °F - 36.5 °F 66% 29.93 in 10.0 mi WNW 19.6 mph - N/A   Overcast
2:33 PM 46.4 °F 39.2 °F 35.6 °F 66% 29.89 in 10.0 mi WNW 18.4 mph - N/A   Overcast
2:58 PM 47.3 °F - 35.4 °F 63% 29.95 in 10.0 mi WNW 18.4 mph - N/A   Overcast
3:58 PM 49.6 °F - 35.1 °F 57% 29.96 in 10.0 mi WNW 19.6 mph - N/A   Overcast
4:58 PM 51.8 °F - 34.9 °F 53% 29.96 in 10.0 mi WNW 17.3 mph 27.6 mph N/A   Mostly Cloudy
5:58 PM 53.2 °F - 34.5 °F 49% 29.96 in 10.0 mi WNW 19.6 mph 28.8 mph N/A   Clear
6:58 PM 53.2 °F - 34.3 °F 49% 29.96 in 10.0 mi NW 15.0 mph - N/A   Clear
7:58 PM 50.4 °F - 35.4 °F 57% 29.98 in 10.0 mi NNW 10.4 mph - N/A   Clear
8:58 PM 45.7 °F 44.4 °F 34.5 °F 65% 29.99 in 10.0 mi North 3.5 mph - N/A   Clear
9:58 PM 36.9 °F - 32.9 °F 86% 30.01 in 10.0 mi Calm Calm - N/A   Clear
10:58 PM 34.9 °F 30.8 °F 33.6 °F 95% 30.01 in 10.0 mi South 4.6 mph - N/A   Clear
11:58 PM 33.4 °F 28.1 °F 32.9 °F 98% 30.01 in 10.0 mi South 5.8 mph - N/A   Clear